Location: Carr Mill
(33.2054°N, 85.9439°W)
Time: 23:11:01
(UTC+00:00)

STARLINK-2732 - Pass Details

Date: 27 October 2021
Orbit: 545 x 549 km, 53.1° (Epoch: 28 November)

Event Time Altitude Azimuth Distance (km) Brightness Sun altitude
Exits shadow 09:23:56 18° 112° (ESE) 1,395 6.2 -32.8°
Drops below altitude 10° 09:26:06 10° 81° (E) 1,812 7.1 -32.3°
Sets 09:28:52 0° 62° (ENE) 2,709 8.1 -31.8°
